Matamoros, Mexico

9:38 PM CDT on June 22, 2017 (GMT -0500)
Gen Servando Canales International

Weather History for MMMA - August, 2013

Change the Weather History Date:

Monday, August 26, 2013

  Actual Average Record
Temperature  
Mean Temperature 82 °F -  
Max Temperature 87 °F 90 °F 98 °F (2002)
Min Temperature 77 °F 73 °F 75 °F (1996)
Cooling Degree Days 17    
Growing Degree Days 32 (Base 50)    
Moisture  
Dew Point 75 °F    
Average Humidity 82    
Maximum Humidity 94    
Minimum Humidity 66    
Precipitation  
Precipitation 0.00 in - - ()
Sea Level Pressure  
Sea Level Pressure 30.02 in    
Wind  
Wind Speed 3 mph ()    
Max Wind Speed 16 mph    
Max Gust Speed -    
Visibility 6.3 miles    
Events Rain    
Averages and records for this station are not official NWS values.
T = Trace of Precipitation, MM = Missing Value Source: Averaged Metar Reports

Daily Weather History Graph

Daily Weather History Graph

Search for Another Location

Airport or City:

Trip Planner

Search our weather history database for the weather conditions in past years. The results will help you decide how hot, cold, wet, or windy it might be!

Date:

Astronomy

Aug. 26, 2013 Rise Set
Actual Time 7:08 AM CDT 7:55 PM CDT
Civil Twilight 6:44 AM CDT 8:18 PM CDT
Nautical Twilight 6:16 AM CDT 8:46 PM CDT
Astronomical Twilight 5:48 AM CDT 9:14 PM CDT
Moon 11:48 PM CDT (8/26) 12:30 PM CDT (8/26)
Length of Visible Light 13h 34m
Length of Day
12h 47m
Waning Gibbous, 66% of the Moon is Illuminated
Aug 26
Waning Gibbous
Aug 28
Last Quarter
Sep 5
New
Sep 12
First Quarter
Sep 19
Full

Hourly Weather History & Observations

Time (CDT) Temp. Heat Index Dew Point Humidity Pressure Visibility Wind Dir Wind Speed Gust Speed Precip Events Conditions
6:03 AM 77.0 °F - 73.4 °F 89% 30.01 in 7.0 mi Calm Calm - N/A   Scattered Clouds
6:40 AM 77.0 °F - 73.4 °F 89% 30.00 in 6.0 mi Calm Calm - N/A   Partly Cloudy
7:40 AM 77.0 °F - 73.4 °F 89% 30.01 in 6.0 mi Calm Calm - N/A   Partly Cloudy
8:40 AM 78.8 °F - 73.4 °F 83% 30.03 in 6.0 mi Calm Calm - N/A   Scattered Clouds
9:40 AM 82.4 °F 90.9 °F 77.0 °F 84% 30.04 in 0.5 mi SE 16.1 mph - N/A Rain Rain
9:57 AM 77.0 °F - 75.2 °F 94% 30.05 in 5.0 mi Calm Calm - N/A   Mostly Cloudy
10:40 AM 77.0 °F - 75.2 °F 94% 30.07 in 6.0 mi East 4.6 mph - N/A   Mostly Cloudy
11:40 AM 80.6 °F 87.1 °F 77.0 °F 89% 30.06 in 6.0 mi ESE 4.6 mph - N/A   Overcast
12:40 PM 82.4 °F 90.9 °F 77.0 °F 84% 30.06 in 6.0 mi SE 6.9 mph - N/A   Overcast
1:40 PM 86.0 °F 95.1 °F 75.2 °F 70% 30.05 in 7.0 mi South 6.9 mph - N/A   Overcast
2:40 PM 86.0 °F 95.1 °F 75.2 °F 70% 30.03 in 7.0 mi South 6.9 mph - N/A   Overcast
3:40 PM 86.0 °F 95.1 °F 75.2 °F 70% 30.00 in 7.0 mi SSE 4.6 mph - N/A   Overcast
4:40 PM 87.8 °F 97.6 °F 75.2 °F 66% 30.00 in 7.0 mi ENE 6.9 mph - N/A   Overcast
5:40 PM 86.0 °F 95.1 °F 75.2 °F 70% 30.00 in 7.0 mi NE 11.5 mph - N/A   Overcast
6:40 PM 84.2 °F 92.3 °F 75.2 °F 74% 29.96 in 7.0 mi ENE 6.9 mph - N/A   Overcast
7:40 PM 82.4 °F 89.5 °F 75.2 °F 79% 30.01 in 7.0 mi NE 4.6 mph - N/A   Scattered Clouds
8:40 PM 80.6 °F 87.1 °F 77.0 °F 89% 30.02 in 7.0 mi Calm Calm - N/A   Partly Cloudy
9:40 PM 78.8 °F - 75.2 °F 89% 29.99 in 8.0 mi Calm Calm - N/A   Partly Cloudy
10:40 PM 80.6 °F 87.1 °F 77.0 °F 89% 30.04 in 8.0 mi Calm Calm - N/A   Scattered Clouds